Weather History for Honolulu, HI

Change the Weather History Date:

Thursday, April 10, 2014

  Actual Average Record
Temperature  
Mean Temperature 75 °F 76 °F  
Max Temperature 80 °F 83 °F 88 °F (1995)
Min Temperature 69 °F 69 °F 60 °F (1975)
Degree Days  
Heating Degree Days 0 0  
Month to date heating degree days 0 0  
Since 1 July heating degree days 0 0  
Cooling Degree Days 10 11  
Month to date cooling degree days 117 110  
Year to date cooling degree days 945 885  
Growing Degree Days 24 (Base 50)    
Moisture  
Dew Point 58 °F    
Average Humidity 59    
Maximum Humidity 70    
Minimum Humidity 48    
Precipitation  
Precipitation T in 0.02 in 0.82 in (1963)
Month to date precipitation 0.03 0.31  
Year to date precipitation 6.32 6.63  
Snow  
Snow 0.00 in - - ()
Month to date snowfall 0.0  
Since 1 July snowfall 0.0  
Snow Depth 0.00 in    
Sea Level Pressure  
Sea Level Pressure 30.05 in    
Wind  
Wind Speed 9 mph (NE)    
Max Wind Speed 16 mph    
Max Gust Speed 22 mph    
Visibility 10 miles    
Events      
T = Trace of Precipitation, MM = Missing Value Source: NWS Daily Summary

Daily Weather History Graph

Daily Weather History Graph

Search for Another Location

Airport:

Trip Planner

Search our weather history database for the weather conditions in past years. The results will help you decide how hot, cold, wet, or windy it might be!

Date:

Astronomy

Apr. 10, 2014 Rise Set
Actual Time 6:16 AM HST 6:49 PM HST
Civil Twilight 5:54 AM HST 7:12 PM HST
Nautical Twilight 5:27 AM HST 7:38 PM HST
Astronomical Twilight 5:01 AM HST 8:05 PM HST
Moon 3:12 PM HST (4/10) 3:14 AM HST (4/10)
Length of Visible Light 13h 17m
Length of Day
12h 32m
Waxing Gibbous, 81% of the Moon is Illuminated
Apr 10
Waxing Gibbous
Apr 14
Full
Apr 21
Last Quarter
Apr 28
New
May 6
First Quarter

Hourly Weather History & Observations

Time (HST) Temp. Dew Point Humidity Pressure Visibility Wind Dir Wind Speed Gust Speed Precip Events Conditions
12:53 AM 71.1 °F 55.0 °F 57% 30.06 in 10.0 mi ENE 8.1 mph - N/A   Scattered Clouds
1:53 AM 70.0 °F 57.0 °F 63% 30.05 in 10.0 mi NE 8.1 mph - N/A   Scattered Clouds
2:53 AM 71.1 °F 57.0 °F 61% 30.04 in 10.0 mi North 4.6 mph - N/A   Scattered Clouds
3:53 AM 72.0 °F 57.0 °F 59% 30.03 in 10.0 mi NE 11.5 mph - N/A   Overcast
4:53 AM 72.0 °F 57.0 °F 59% 30.04 in 10.0 mi NE 8.1 mph - N/A   Overcast
5:53 AM 70.0 °F 59.0 °F 68% 30.05 in 10.0 mi NE 9.2 mph - 0.00 in   Overcast
6:53 AM 70.0 °F 59.0 °F 68% 30.06 in 10.0 mi NNE 8.1 mph - N/A   Mostly Cloudy
7:53 AM 72.0 °F 59.0 °F 64% 30.08 in 10.0 mi NE 10.4 mph - N/A   Mostly Cloudy
8:53 AM 71.1 °F 60.1 °F 68% 30.10 in 10.0 mi ENE 5.8 mph - N/A   Mostly Cloudy
9:53 AM 73.0 °F 59.0 °F 61% 30.09 in 10.0 mi NE 8.1 mph - N/A   Mostly Cloudy
10:53 AM 75.9 °F 57.0 °F 52% 30.07 in 10.0 mi ENE 9.2 mph - N/A   Mostly Cloudy
11:53 AM 78.1 °F 57.0 °F 48% 30.06 in 10.0 mi NE 10.4 mph 18.4 mph N/A   Scattered Clouds
12:53 PM 78.1 °F 57.0 °F 48% 30.04 in 10.0 mi NE 8.1 mph - N/A   Mostly Cloudy
1:53 PM 77.0 °F 57.0 °F 50% 30.01 in 10.0 mi NE 6.9 mph - N/A   Mostly Cloudy
2:53 PM 77.0 °F 57.9 °F 52% 29.99 in 10.0 mi NNE 10.4 mph - N/A   Mostly Cloudy
3:53 PM 78.1 °F 60.1 °F 54% 29.99 in 10.0 mi NE 16.1 mph 21.9 mph N/A   Mostly Cloudy
4:53 PM 75.9 °F 60.1 °F 58% 29.99 in 10.0 mi NE 15.0 mph - N/A   Mostly Cloudy
5:53 PM 75.0 °F 60.1 °F 60% 30.01 in 10.0 mi NE 12.7 mph - N/A   Mostly Cloudy
6:53 PM 73.0 °F 60.1 °F 64% 30.03 in 10.0 mi NE 11.5 mph - N/A   Mostly Cloudy
7:53 PM 73.0 °F 60.1 °F 64% 30.05 in 10.0 mi NE 5.8 mph - N/A   Mostly Cloudy
8:53 PM 73.0 °F 59.0 °F 61% 30.06 in 10.0 mi NNE 6.9 mph - N/A   Mostly Cloudy
9:53 PM 73.0 °F 60.1 °F 64% 30.09 in 10.0 mi NE 9.2 mph - N/A   Mostly Cloudy
10:53 PM 73.0 °F 59.0 °F 61% 30.08 in 10.0 mi NE 10.4 mph - N/A   Mostly Cloudy
11:53 PM 71.1 °F 59.0 °F 66% 30.07 in 10.0 mi NNE 6.9 mph - N/A   Scattered Clouds